WIA11 TFFJ-TNCS

Flight info

Callsign WIA11
Flight time 0h 22m
Altitude 4000
Route DCT
Aircraft DHC6/L-SDFGR/C

Departure

Time 2026-05-05 10:40
Airport St. Jean Airport (TFFJ)

Arrival

Time 2026-05-05 11:02
Airport Juancho E. Yrausquin Airport (TNCS)
Time Latitude Longitude Altitude Speed Heading
2026-05-05 10:36 17.90368 -62.84457 39 ft 0 kts 74°
2026-05-05 10:37 17.90370 -62.84455 39 ft 3 kts 49°
2026-05-05 10:37 17.90422 -62.84383 22 ft 18 kts 358°
2026-05-05 10:37 17.90433 -62.84582 28 ft 42 kts 268°
2026-05-05 10:38 17.90436 -62.84649 75 ft 1 kts 89°
2026-05-05 10:38 17.90436 -62.84646 73 ft 0 kts 90°
2026-05-05 10:38 17.90435 -62.84524 31 ft 49 kts 89°
2026-05-05 10:39 17.90439 -62.83972 193 ft 88 kts 91°
2026-05-05 10:39 17.90694 -62.83411 532 ft 97 kts 41°
2026-05-05 10:39 17.91159 -62.83803 613 ft 153 kts 249°
2026-05-05 10:39 17.90286 -62.84460 414 ft 167 kts 256°
2026-05-05 10:40 17.89826 -62.85146 920 ft 124 kts 143°
2026-05-05 10:40 17.89798 -62.84241 620 ft 152 kts 66°
2026-05-05 10:40 17.90010 -62.83275 700 ft 129 kts 54°
2026-05-05 10:40 17.90822 -62.83431 513 ft 172 kts 283°
2026-05-05 10:41 17.90349 -62.84527 367 ft 154 kts 289°
2026-05-05 10:41 17.90612 -62.85469 523 ft 122 kts 339°
2026-05-05 10:41 17.91191 -62.86094 813 ft 124 kts 277°
2026-05-05 10:41 17.90546 -62.86526 868 ft 133 kts 143°
2026-05-05 10:42 17.90427 -62.84495 83 ft 187 kts 92°
2026-05-05 10:42 17.90633 -62.83543 754 ft 142 kts 360°
2026-05-05 10:42 17.90807 -62.84396 1106 ft 144 kts 248°
2026-05-05 10:43 17.90156 -62.84949 1294 ft 135 kts 142°
2026-05-05 10:43 17.90416 -62.84407 1668 ft 139 kts 345°
2026-05-05 10:43 17.90838 -62.85404 1755 ft 156 kts 278°
2026-05-05 10:43 17.91031 -62.86460 2250 ft 147 kts 292°
2026-05-05 10:44 17.91833 -62.87178 2052 ft 170 kts
2026-05-05 10:44 17.92808 -62.86697 2350 ft 139 kts 31°
2026-05-05 10:44 17.93737 -62.86728 2769 ft 148 kts 338°
2026-05-05 10:44 17.94508 -62.87566 2771 ft 170 kts 300°
2026-05-05 10:45 17.94984 -62.88684 3039 ft 163 kts 293°
2026-05-05 10:45 17.95573 -62.89693 3142 ft 169 kts 321°
2026-05-05 10:45 17.96466 -62.90474 2785 ft 190 kts 280°
2026-05-05 10:45 17.95746 -62.91469 2483 ft 187 kts 171°
2026-05-05 10:46 17.95119 -62.90567 2661 ft 155 kts 110°
2026-05-05 10:46 17.94579 -62.89608 2785 ft 155 kts 134°
2026-05-05 10:46 17.93722 -62.88924 2794 ft 161 kts 138°
2026-05-05 10:46 17.92775 -62.88181 2582 ft 173 kts 144°
2026-05-05 10:47 17.91720 -62.87704 2968 ft 147 kts 166°
2026-05-05 10:47 17.90779 -62.87788 3544 ft 136 kts 188°
2026-05-05 10:47 17.89895 -62.88340 3517 ft 167 kts 221°
2026-05-05 10:47 17.89167 -62.89337 3582 ft 174 kts 227°
2026-05-05 10:48 17.88439 -62.90312 3898 ft 164 kts 227°
2026-05-05 10:48 17.87740 -62.91239 4197 ft 160 kts 227°
2026-05-05 10:48 17.87053 -62.92149 4478 ft 158 kts 226°
2026-05-05 10:48 17.86371 -62.93058 4749 ft 159 kts 227°
2026-05-05 10:49 17.85688 -62.93966 5014 ft 158 kts 226°
2026-05-05 10:49 17.85006 -62.94875 5269 ft 159 kts 227°
2026-05-05 10:49 17.84322 -62.95784 5522 ft 159 kts 227°
2026-05-05 10:49 17.83637 -62.96698 5776 ft 160 kts 227°
2026-05-05 10:50 17.82945 -62.97617 6030 ft 161 kts 228°
2026-05-05 10:50 17.82254 -62.98541 6289 ft 161 kts 227°
2026-05-05 10:50 17.81559 -62.99464 6546 ft 161 kts 227°
2026-05-05 10:50 17.80867 -63.00387 6787 ft 161 kts 229°
2026-05-05 10:51 17.80174 -63.01315 7023 ft 162 kts 230°
2026-05-05 10:51 17.79485 -63.02251 7258 ft 162 kts 228°
2026-05-05 10:51 17.78785 -63.03179 7497 ft 162 kts 229°
2026-05-05 10:51 17.78087 -63.04110 7735 ft 163 kts 227°
2026-05-05 10:52 17.77384 -63.05041 7953 ft 163 kts 227°
2026-05-05 10:52 17.76657 -63.06004 8031 ft 173 kts 229°
2026-05-05 10:52 17.75893 -63.07021 8039 ft 181 kts 228°
2026-05-05 10:52 17.75104 -63.08072 8039 ft 185 kts 228°
2026-05-05 10:53 17.74438 -63.09219 8020 ft 189 kts 253°
2026-05-05 10:53 17.74624 -63.10553 8019 ft 192 kts 295°
2026-05-05 10:53 17.75285 -63.11774 8032 ft 193 kts 300°
2026-05-05 10:53 17.75961 -63.12995 8030 ft 193 kts 300°
2026-05-05 10:54 17.76638 -63.14215 8024 ft 195 kts 300°
2026-05-05 10:54 17.77318 -63.15451 8024 ft 194 kts 298°
2026-05-05 10:54 17.77590 -63.16815 8021 ft 192 kts 268°
2026-05-05 10:54 17.77582 -63.18214 8019 ft 193 kts 269°
2026-05-05 10:55 17.77637 -63.19624 8024 ft 193 kts 272°
2026-05-05 10:55 17.77717 -63.21034 7936 ft 196 kts 272°
2026-05-05 10:55 17.77793 -63.22415 7728 ft 179 kts 272°
2026-05-05 10:55 17.77860 -63.23647 7458 ft 162 kts 271°
2026-05-05 10:56 17.77916 -63.24784 7060 ft 139 kts 271°
2026-05-05 10:56 17.77962 -63.25618 6242 ft 100 kts 268°
2026-05-05 10:56 17.77991 -63.26340 4694 ft 134 kts 269°
2026-05-05 10:56 17.78017 -63.27647 3510 ft 186 kts 264°
2026-05-05 10:57 17.77577 -63.28818 3063 ft 166 kts 229°
2026-05-05 10:57 17.76748 -63.29575 2604 ft 154 kts 202°
2026-05-05 10:57 17.75743 -63.29859 2118 ft 147 kts 178°
2026-05-05 10:57 17.74799 -63.29717 1980 ft 123 kts 160°
2026-05-05 10:58 17.74012 -63.29525 1799 ft 115 kts 159°
2026-05-05 10:58 17.73207 -63.29333 1462 ft 120 kts 159°
2026-05-05 10:58 17.72410 -63.29149 1310 ft 122 kts 158°
2026-05-05 10:58 17.71578 -63.28909 1284 ft 129 kts 149°
2026-05-05 10:59 17.70855 -63.28273 1307 ft 143 kts 139°
2026-05-05 10:59 17.69989 -63.27702 1473 ft 150 kts 147°
2026-05-05 10:59 17.69066 -63.27212 1647 ft 153 kts 148°
2026-05-05 10:59 17.68037 -63.26761 1567 ft 167 kts 155°
2026-05-05 11:00 17.66955 -63.26335 1590 ft 165 kts 152°
2026-05-05 11:00 17.66031 -63.25683 1500 ft 150 kts 133°
2026-05-05 11:00 17.65673 -63.25096 1036 ft 85 kts 103°
2026-05-05 11:00 17.65427 -63.24521 1044 ft 71 kts 115°
2026-05-05 11:01 17.65284 -63.24093 762 ft 60 kts 107°
2026-05-05 11:01 17.65111 -63.23634 548 ft 75 kts 103°
2026-05-05 11:01 17.64958 -63.23169 529 ft 69 kts 112°
2026-05-05 11:01 17.64801 -63.22718 353 ft 59 kts 111°
2026-05-05 11:02 17.64643 -63.22322 204 ft 64 kts 110°
2026-05-05 11:02 17.64551 -63.22078 132 ft 0 kts 102°
2026-05-05 11:02 17.64524 -63.22024 127 ft 16 kts 159°
2026-05-05 11:02 17.64464 -63.22016 126 ft 3 kts 212°
2026-05-05 11:03 17.64449 -63.22023 126 ft 0 kts 204°